N1GUJ Weather Reports


Display with metric or nautical units.
time (UTC)temp
F
wind
direction
speed
MPH
gust
MPH
rain 1hr
in
rain 24hr
in
rain mn
in
humidity
%
barometer
mb
20260905185459 66 171 0.0 1.0 0.00 0.00 0.00 82 1011.7
20260905185005 66 171 0.0 4.0 0.00 0.00 0.00 82 1011.8
20260905184458 66 185 0.0 1.0 0.00 0.00 0.00 81 1011.8
20260905184004 66 185 0.0 2.0 0.00 0.00 0.00 81 1011.8
20260905183507 66 185 0.0 1.0 0.00 0.00 0.00 81 1011.8
20260905183001 66 185 0.0 2.0 0.00 0.00 0.00 80 1011.9
20260905182504 66 192 0.0 2.0 0.00 0.00 0.00 79 1011.9
20260905182001 66 192 0.0 2.0 0.00 0.00 0.00 79 1011.9
20260905181458 66 192 0.0 2.0 0.00 0.00 0.00 80 1011.9
20260905180958 65 192 0.0 2.0 0.00 0.00 0.00 82 1011.9
20260905180501 65 178 0.0 3.0 0.00 0.00 0.00 85 1011.9
20260905180001 65 217 1.0 4.0 0.00 0.00 0.00 85 1011.9
20260905175504 64 144 0.0 2.0 0.00 0.00 0.00 84 1011.9
20260905174958 64 222 0.0 3.0 0.00 0.00 0.00 83 1012.0
20260905174504 64 170 0.0 1.0 0.00 0.00 0.00 84 1012.0
20260905174001 64 170 0.0 1.0 0.00 0.00 0.00 83 1012.0
20260905173501 65 170 1.0 2.0 0.00 0.00 0.00 82 1012.0
20260905173001 65 171 0.0 1.0 0.00 0.00 0.00 81 1012.0
20260905172458 65 171 1.0 2.0 0.00 0.00 0.00 81 1011.9
20260905171958 65 214 0.0 2.0 0.00 0.00 0.00 81 1011.9
20260905171501 65 214 0.0 1.0 0.00 0.00 0.00 80 1011.9
20260905170958 66 214 0.0 2.0 0.00 0.00 0.00 80 1011.9
20260905170504 66 214 3.0 3.0 0.00 0.00 0.00 78 1011.8
20260905170001 66 220 0.0 1.0 0.00 0.00 0.00 78 1011.8
20260905165504 67 220 0.0 1.0 0.00 0.00 0.00 78 1011.8
20260905165001 67 220 0.0 1.0 0.00 0.00 0.00 76 1011.8
20260905164501 67 220 0.0 4.0 0.00 0.00 0.00 77 1011.9
20260905163958 67 229 0.0 1.0 0.00 0.00 0.00 78 1011.9
20260905163501 66 230 0.0 2.0 0.00 0.00 0.00 76 1011.8
20260905163001 66 231 3.0 3.0 0.00 0.00 0.00 74 1011.8
20260905162458 67 196 0.0 2.0 0.00 0.00 0.00 73 1011.8
20260905161958 67 130 0.0 3.0 0.00 0.00 0.00 73 1011.9
20260905161504 67 226 0.0 1.0 0.00 0.00 0.00 76 1011.8
20260905161001 66 226 0.0 0.0 0.00 0.00 0.00 76 1011.8
20260905160501 66 226 0.0 4.0 0.00 0.00 0.00 77 1011.9
20260905160001 66 230 1.0 2.0 0.00 0.00 0.00 78 1011.9
20260905155458 66 235 2.0 5.0 0.00 0.00 0.00 76 1012.0
20260905154958 66 226 0.0 2.0 0.00 0.00 0.00 77 1011.9
20260905154500 66 224 0.0 4.0 0.00 0.00 0.00 76 1011.8
20260905153958 66 168 1.0 2.0 0.00 0.00 0.00 78 1011.9
20260905153500 66 168 0.0 3.0 0.00 0.00 0.00 79 1011.8
20260905152958 66 166 0.0 2.0 0.00 0.00 0.00 79 1011.9
20260905152458 65 168 0.0 2.0 0.00 0.00 0.00 81 1011.9
20260905151958 65 176 0.0 1.0 0.00 0.00 0.00 80 1011.8
20260905151458 65 176 0.0 4.0 0.00 0.00 0.00 82 1011.9
20260905151001 65 112 0.0 1.0 0.00 0.00 0.00 81 1011.8
20260905150457 65 111 0.0 5.0 0.00 0.00 0.00 79 1011.8
20260905150004 66 122 0.0 6.0 0.00 0.00 0.00 80 1011.8
20260905145500 66 134 0.0 1.0 0.00 0.00 0.00 81 1011.7
20260905145001 66 134 0.0 2.0 0.00 0.00 0.00 81 1011.7
20260905144457 66 135 0.0 5.0 0.00 0.00 0.00 80 1011.7
20260905143958 66 169 0.0 3.0 0.00 0.00 0.00 81 1011.7
20260905143457 65 169 0.0 1.0 0.00 0.00 0.00 82 1011.7
20260905143000 65 169 0.0 2.0 0.00 0.00 0.00 81 1011.7
20260905142457 65 169 0.0 3.0 0.00 0.00 0.00 84 1011.6
20260905142000 64 169 0.0 3.0 0.00 0.00 0.00 83 1011.6
20260905141500 64 169 2.0 2.0 0.00 0.00 0.00 83 1011.6
20260905140957 64 169 0.0 3.0 0.00 0.00 0.00 83 1011.6
20260905140457 64 169 0.0 1.0 0.00 0.00 0.00 84 1011.6
20260905135957 63 169 0.0 3.0 0.00 0.00 0.00 84 1011.7
20260905135458 63 169 0.0 1.0 0.00 0.00 0.00 86 1011.6
20260905135006 63 169 0.0 3.0 0.00 0.00 0.00 86 1011.6
20260905134503 62 169 0.0 1.0 0.00 0.00 0.00 88 1011.6
20260905133958 62 169 0.0 1.0 0.00 0.00 0.00 87 1011.6
20260905133457 62 169 0.0 3.0 0.00 0.00 0.00 88 1011.5
20260905133000 62 169 0.0 2.0 0.00 0.00 0.00 89 1011.6
20260905132500 62 169 0.0 0.0 0.00 0.00 0.00 90 1011.5
20260905132000 62 169 0.0 0.0 0.00 0.00 0.00 90 1011.5
20260905131457 61 169 0.0 0.0 0.00 0.00 0.00 90 1011.4
20260905131000 61 169 0.0 2.0 0.00 0.00 0.00 90 1011.3
20260905130457 61 169 0.0 1.0 0.00 0.00 0.00 90 1011.4
20260905125957 61 169 0.0 0.0 0.00 0.00 0.00 90 1011.3
20260905125506 61 169 0.0 0.0 0.00 0.00 0.00 90 1011.2
20260905125000 61 169 0.0 1.0 0.00 0.00 0.00 91 1011.3
20260905124500 61 169 0.0 1.0 0.00 0.00 0.00 91 1011.3
20260905124000 61 169 0.0 1.0 0.00 0.00 0.00 91 1011.2
20260905123457 61 169 0.0 1.0 0.00 0.00 0.00 91 1011.1
20260905123006 61 169 0.0 1.0 0.00 0.00 0.00 91 1011.1
20260905122457 61 169 0.0 2.0 0.00 0.00 0.00 91 1011.1
20260905122000 61 169 0.0 1.0 0.00 0.00 0.00 91 1011.1
20260905121503 60 169 0.0 0.0 0.00 0.00 0.00 91 1011.1
20260905121000 60 169 0.0 1.0 0.00 0.00 0.00 91 1011.0
20260905120457 60 169 0.0 0.0 0.00 0.00 0.00 91 1011.0
20260905120003 60 169 0.0 1.0 0.00 0.00 0.00 91 1011.0
20260905115503 60 169 0.0 2.0 0.00 0.00 0.00 91 1011.0
20260905114957 60 169 0.0 1.0 0.00 0.00 0.00 91 1010.9
20260905114503 60 169 0.0 3.0 0.00 0.00 0.00 91 1010.9
20260905114003 60 168 0.0 1.0 0.00 0.00 0.00 91 1010.9
20260905113502 60 168 0.0 2.0 0.00 0.00 0.00 91 1010.8
20260905113003 60 169 0.0 2.0 0.00 0.00 0.00 91 1010.7
20260905112506 60 145 0.0 1.0 0.00 0.00 0.00 91 1010.7
20260905111957 60 145 0.0 3.0 0.00 0.00 0.00 91 1010.7
20260905111456 60 147 0.0 0.0 0.00 0.00 0.00 91 1010.7
20260905110959 60 147 0.0 0.0 0.00 0.00 0.00 91 1010.6
20260905110456 60 126 0.0 1.0 0.00 0.00 0.00 91 1010.6
20260905105956 60 120 0.0 0.0 0.00 0.00 0.00 91 1010.6
20260905105456 60 120 0.0 0.0 0.00 0.00 0.00 91 1010.5
20260905104956 60 120 0.0 0.0 0.00 0.00 0.00 91 1010.4
20260905104502 60 120 0.0 0.0 0.00 0.00 0.00 91 1010.5
20260905103956 60 120 0.0 0.0 0.00 0.00 0.00 91 1010.5
20260905103457 60 120 0.0 0.0 0.00 0.00 0.00 91 1010.5
20260905103002 60 120 0.0 0.0 0.00 0.00 0.00 91 1010.5
20260905102459 60 120 0.0 0.0 0.00 0.00 0.00 91 1010.5
20260905101959 60 120 0.0 0.0 0.00 0.00 0.00 91 1010.4
20260905101456 60 120 0.0 0.0 0.00 0.00 0.00 91 1010.4
20260905100956 60 120 0.0 0.0 0.00 0.00 0.00 91 1010.4
20260905100456 60 120 0.0 0.0 0.00 0.00 0.00 91 1010.4
20260905100000 60 120 0.0 0.0 0.00 0.00 0.00 91 1010.4
20260905095456 60 120 0.0 0.0 0.00 0.00 0.00 91 1010.4
20260905094957 60 120 0.0 0.0 0.00 0.00 0.00 91 1010.3
20260905094456 60 120 0.0 0.0 0.00 0.00 0.00 91 1010.3
20260905093959 60 120 0.0 0.0 0.00 0.00 0.00 91 1010.3
20260905093506 60 120 0.0 0.0 0.00 0.00 0.00 91 1010.3
20260905092959 60 120 0.0 0.0 0.00 0.00 0.00 91 1010.3
20260905092459 60 120 0.0 0.0 0.00 0.00 0.00 91 1010.3
20260905091959 60 120 0.0 0.0 0.00 0.00 0.00 91 1010.3
20260905091456 60 120 0.0 0.0 0.00 0.00 0.00 91 1010.3
20260905090956 60 120 0.0 0.0 0.00 0.00 0.00 92 1010.2
20260905090503 60 120 0.0 0.0 0.00 0.00 0.00 91 1010.2
20260905085959 60 120 0.0 0.0 0.00 0.00 0.00 91 1010.1
20260905085456 60 120 0.0 0.0 0.00 0.00 0.00 91 1010.1
20260905084956 60 120 0.0 0.0 0.00 0.00 0.00 91 1010.1
20260905084456 60 120 0.0 0.0 0.00 0.00 0.00 91 1010.0
20260905083956 59 120 0.0 0.0 0.00 0.00 0.00 91 1010.0
20260905083459 59 120 0.0 0.0 0.00 0.00 0.00 91 1010.0
20260905082956 59 120 0.0 0.0 0.00 0.00 0.00 91 1010.0
20260905082459 59 120 0.0 0.0 0.00 0.00 0.00 91 1010.0
20260905082002 59 120 0.0 0.0 0.00 0.00 0.00 91 1010.0
20260905081456 59 120 0.0 0.0 0.00 0.00 0.00 91 1010.0
20260905080956 59 120 0.0 0.0 0.00 0.00 0.00 91 1010.0
20260905080502 59 120 0.0 0.0 0.00 0.00 0.00 91 1010.1
20260905075959 59 120 0.0 0.0 0.00 0.00 0.00 91 1010.0
20260905075456 59 120 0.0 0.0 0.00 0.00 0.00 91 1010.1
20260905074959 59 120 0.0 0.0 0.00 0.00 0.00 91 1010.1
20260905074456 59 120 0.0 0.0 0.00 0.00 0.00 91 1010.1
20260905073956 59 120 0.0 0.0 0.00 0.00 0.00 91 1010.0
20260905073458 59 120 0.0 0.0 0.00 0.00 0.00 91 1010.0
20260905072956 59 120 0.0 0.0 0.00 0.00 0.00 91 1010.1
20260905072459 59 120 0.0 0.0 0.00 0.00 0.00 91 1010.1
20260905071959 59 121 0.0 0.0 0.00 0.00 0.00 91 1010.1
20260905071459 59 121 0.0 0.0 0.00 0.00 0.00 91 1010.2
20260905070959 59 121 0.0 0.0 0.00 0.00 0.00 91 1010.3
20260905070458 59 121 0.0 0.0 0.00 0.00 0.00 91 1010.3
20260905070001 59 121 0.0 0.0 0.00 0.00 0.00 90 1010.4
20260905065458 59 121 0.0 0.0 0.00 0.00 0.00 90 1010.3
20260905064955 59 121 0.0 0.0 0.00 0.00 0.00 90 1010.3
20260905064501 59 121 0.0 0.0 0.00 0.00 0.00 90 1010.3
20260905063958 59 121 0.0 0.0 0.00 0.00 0.00 90 1010.3
20260905063455 60 121 0.0 0.0 0.00 0.00 0.00 90 1010.3
20260905062955 60 121 0.0 0.0 0.00 0.00 0.00 90 1010.3
20260905062504 60 121 0.0 0.0 0.00 0.00 0.00 90 1010.4
20260905061958 60 121 0.0 0.0 0.00 0.00 0.00 90 1010.3
20260905061455 60 121 0.0 0.0 0.00 0.00 0.00 89 1010.3
20260905060956 60 121 0.0 0.0 0.00 0.00 0.00 89 1010.3
20260905060501 60 121 0.0 0.0 0.00 0.00 0.00 89 1010.3
20260905060004 60 121 0.0 0.0 0.00 0.00 0.00 89 1010.3
20260905055455 61 121 0.0 0.0 0.00 0.00 0.00 90 1010.2
20260905055004 61 121 0.0 0.0 0.00 0.00 0.00 90 1010.2
20260905054455 61 121 0.0 0.0 0.00 0.00 0.00 90 1010.2
20260905053955 61 121 0.0 0.0 0.00 0.00 0.00 90 1010.3
20260905053455 61 121 0.0 0.0 0.00 0.00 0.00 90 1010.4
20260905052955 61 121 0.0 0.0 0.00 0.00 0.00 90 1010.4
20260905052458 61 121 0.0 0.0 0.00 0.00 0.00 90 1010.3
20260905051955 61 121 0.0 0.0 0.00 0.00 0.00 90 1010.4
20260905051501 61 121 0.0 0.0 0.00 0.00 0.00 90 1010.4
20260905050955 60 121 0.0 0.0 0.00 0.00 0.00 90 1010.3
20260905050458 60 121 0.0 0.0 0.00 0.00 0.00 89 1010.3
20260905045958 60 121 0.0 0.0 0.00 0.00 0.00 89 1010.3
20260905045455 60 121 0.0 0.0 0.00 0.00 0.00 89 1010.4
20260905044958 60 121 0.0 0.0 0.00 0.00 0.00 89 1010.4
20260905044455 60 121 0.0 0.0 0.00 0.00 0.00 89 1010.4
20260905043955 60 121 0.0 0.0 0.00 0.00 0.00 89 1010.4
20260905043458 60 121 0.0 0.0 0.00 0.00 0.00 89 1010.4
20260905042955 60 121 0.0 0.0 0.00 0.00 0.00 89 1010.4
20260905042458 61 121 0.0 0.0 0.00 0.00 0.00 89 1010.4
20260905041958 61 121 0.0 0.0 0.00 0.00 0.00 89 1010.5
20260905041455 61 121 0.0 0.0 0.00 0.00 0.00 89 1010.5
20260905040958 61 121 0.0 0.0 0.00 0.00 0.00 89 1010.5
20260905040458 61 121 0.0 0.0 0.00 0.00 0.00 88 1010.4
20260905035958 61 121 0.0 0.0 0.00 0.00 0.00 88 1010.5
20260905035455 61 121 0.0 0.0 0.00 0.00 0.00 88 1010.4
20260905034955 61 121 0.0 0.0 0.00 0.00 0.00 87 1010.4
20260905034455 61 121 0.0 0.0 0.00 0.00 0.00 87 1010.5
20260905034001 61 121 0.0 0.0 0.00 0.00 0.00 88 1010.5
20260905033501 61 121 0.0 0.0 0.00 0.00 0.00 88 1010.5
20260905032957 61 121 0.0 0.0 0.00 0.00 0.00 88 1010.5
20260905032458 61 121 0.0 0.0 0.00 0.00 0.00 87 1010.6
20260905031958 61 121 0.0 0.0 0.00 0.00 0.00 87 1010.5
20260905031458 62 121 0.0 0.0 0.00 0.00 0.00 87 1010.6
20260905030955 62 121 0.0 0.0 0.00 0.00 0.00 87 1010.6
20260905030457 62 121 0.0 0.0 0.00 0.00 0.00 87 1010.6
20260905025958 62 121 0.0 0.0 0.00 0.00 0.00 87 1010.6
20260905025457 62 121 0.0 0.0 0.00 0.00 0.00 86 1010.6
20260905024958 62 121 0.0 0.0 0.00 0.00 0.00 87 1010.6
20260905024457 62 121 0.0 0.0 0.00 0.00 0.00 87 1010.6
20260905023954 62 121 0.0 0.0 0.00 0.00 0.00 87 1010.6
20260905023454 62 121 0.0 0.0 0.00 0.00 0.00 87 1010.7
20260905022957 63 121 0.0 0.0 0.00 0.00 0.00 86 1010.8
20260905022458 63 121 0.0 0.0 0.00 0.00 0.00 86 1010.8
20260905021954 63 121 0.0 0.0 0.00 0.00 0.00 86 1010.9
20260905021454 63 121 0.0 0.0 0.00 0.00 0.00 86 1010.9
20260905021000 63 121 0.0 0.0 0.00 0.00 0.00 86 1010.9
20260905020455 63 121 0.0 0.0 0.00 0.00 0.00 86 1010.9
20260905015954 63 121 0.0 0.0 0.00 0.00 0.00 86 1010.9
20260905015503 63 121 0.0 0.0 0.00 0.00 0.00 86 1011.0
20260905014957 63 121 0.0 0.0 0.00 0.00 0.00 86 1011.0
20260905014455 63 121 0.0 0.0 0.00 0.00 0.00 86 1011.0
20260905013957 63 121 0.0 0.0 0.00 0.00 0.00 86 1011.0
20260905013458 63 121 0.0 0.0 0.00 0.00 0.00 85 1010.9
20260905012954 63 121 0.0 0.0 0.00 0.00 0.00 86 1010.8
20260905012457 63 121 0.0 0.0 0.00 0.00 0.00 85 1010.9
20260905011954 63 121 0.0 0.0 0.00 0.00 0.00 85 1010.9
20260905011457 63 121 0.0 0.0 0.00 0.00 0.00 85 1010.9
20260905010957 63 121 0.0 0.0 0.00 0.00 0.00 85 1010.9
20260905010500 63 121 0.0 0.0 0.00 0.00 0.00 85 1011.0
20260905005957 63 121 0.0 0.0 0.00 0.00 0.00 85 1010.9
20260905005457 64 121 0.0 0.0 0.00 0.00 0.00 84 1010.9
20260905004954 64 121 0.0 0.0 0.00 0.00 0.00 84 1011.0
20260905004454 64 121 0.0 0.0 0.00 0.00 0.00 83 1010.9
20260905003954 64 121 0.0 0.0 0.00 0.00 0.00 83 1010.7
20260905003454 64 121 0.0 0.0 0.00 0.00 0.00 82 1010.7
20260905002954 64 121 0.0 0.0 0.00 0.00 0.00 82 1010.8
20260905002457 65 121 0.0 0.0 0.00 0.00 0.00 82 1010.7
20260905001954 65 121 0.0 0.0 0.00 0.00 0.00 81 1010.7
20260905001454 65 121 0.0 0.0 0.00 0.00 0.00 81 1010.6
20260905000954 65 121 0.0 0.0 0.00 0.00 0.00 81 1010.6
20260905000457 65 121 0.0 0.0 0.00 0.00 0.00 81 1010.5
20260905000000 66 121 0.0 0.0 0.00 0.00 0.00 80 1010.4
20260904235500 66 121 0.0 0.0 0.00 0.00 0.00 81 1010.4
20260904234954 66 121 0.0 0.0 0.00 0.00 0.00 80 1010.3
20260904234453 66 121 0.0 0.0 0.00 0.00 0.00 79 1010.2
20260904233954 66 121 0.0 0.0 0.00 0.00 0.00 79 1010.3
20260904233454 67 121 0.0 0.0 0.00 0.00 0.00 79 1010.2
20260904232957 67 121 0.0 0.0 0.00 0.00 0.00 77 1010.3
20260904232500 67 121 0.0 0.0 0.00 0.00 0.00 76 1010.4
20260904231954 67 121 0.0 0.0 0.00 0.00 0.00 76 1010.4
20260904231456 67 121 0.0 0.0 0.00 0.00 0.00 76 1010.3
20260904230954 67 121 0.0 0.0 0.00 0.00 0.00 76 1010.4
20260904230456 67 121 0.0 0.0 0.00 0.00 0.00 76 1010.5
20260904225957 68 121 0.0 0.0 0.00 0.00 0.00 75 1010.6
20260904225453 68 121 0.0 0.0 0.00 0.00 0.00 75 1010.6
20260904224959 68 121 0.0 0.0 0.00 0.00 0.00 75 1010.5
20260904224457 68 121 0.0 0.0 0.00 0.00 0.00 74 1010.4
20260904223956 68 121 0.0 2.0 0.00 0.00 0.00 74 1010.3
20260904223453 68 118 0.0 1.0 0.00 0.00 0.00 74 1010.3
20260904222953 68 117 0.0 1.0 0.00 0.00 0.00 74 1010.4
20260904222456 69 117 0.0 0.0 0.00 0.00 0.00 76 1010.4
20260904221956 69 117 0.0 0.0 0.00 0.00 0.00 76 1010.4
20260904221453 69 117 0.0 0.0 0.00 0.00 0.00 75 1010.3
20260904220956 69 117 0.0 1.0 0.00 0.00 0.00 75 1010.3
20260904220459 69 117 0.0 4.0 0.00 0.00 0.00 74 1010.3
20260904215959 69 145 0.0 1.0 0.00 0.00 0.00 75 1010.2
20260904215459 69 145 0.0 0.0 0.00 0.00 0.00 75 1010.2
20260904215000 70 145 0.0 1.0 0.00 0.00 0.00 74 1010.2
20260904214456 70 145 0.0 1.0 0.00 0.00 0.00 74 1010.0
20260904213953 70 145 0.0 1.0 0.00 0.00 0.00 73 1010.0
20260904213454 70 145 0.0 1.0 0.00 0.00 0.00 71 1010.1
20260904212956 71 145 0.0 0.0 0.00 0.00 0.00 72 1010.1
20260904212453 71 145 0.0 0.0 0.00 0.00 0.00 73 1010.1
20260904211956 71 145 0.0 0.0 0.00 0.00 0.00 72 1010.0
20260904211453 71 145 0.0 0.0 0.00 0.00 0.00 72 1010.0
20260904211002 71 145 0.0 1.0 0.00 0.00 0.00 69 1010.0
20260904210453 71 145 1.0 3.0 0.00 0.00 0.00 69 1010.1
20260904205953 72 153 0.0 3.0 0.00 0.00 0.00 70 1010.0
20260904205453 72 155 0.0 2.0 0.00 0.00 0.00 67 1010.1
20260904204956 72 155 0.0 1.0 0.00 0.00 0.00 69 1010.1
20260904204453 72 155 0.0 1.0 0.00 0.00 0.00 69 1010.2
20260904203953 72 155 0.0 2.0 0.00 0.00 0.00 67 1010.1
20260904203453 73 155 1.0 2.0 0.00 0.00 0.00 66 1010.0
20260904202953 73 155 0.0 1.0 0.00 0.00 0.00 67 1010.1
20260904202453 73 156 0.0 2.0 0.00 0.00 0.00 66 1010.0
20260904201956 73 156 0.0 2.0 0.00 0.00 0.00 66 1010.0
20260904201456 73 107 0.0 2.0 0.00 0.00 0.00 69 1010.0
20260904200953 73 96 0.0 5.0 0.00 0.00 0.00 67 1010.0
20260904200456 73 199 0.0 1.0 0.00 0.00 0.00 67 1010.0
20260904195953 73 199 0.0 2.0 0.00 0.00 0.00 67 1010.0
20260904195452 73 205 0.0 4.0 0.00 0.00 0.00 65 1010.1
20260904194959 74 182 2.0 2.0 0.00 0.00 0.00 68 1010.0
20260904194453 74 93 1.0 4.0 0.00 0.00 0.00 67 1010.0
20260904193953 74 95 0.0 4.0 0.00 0.00 0.00 64 1010.0
20260904193456 73 275 0.0 4.0 0.00 0.00 0.00 63 1010.0
20260904192958 73 182 0.0 2.0 0.00 0.00 0.00 67 1010.0
20260904192456 73 185 0.0 2.0 0.00 0.00 0.00 66 1010.0
20260904191953 73 186 0.0 5.0 0.00 0.00 0.00 64 1010.1
20260904191453 73 89 5.0 5.0 0.00 0.00 0.00 67 1010.0
20260904190953 74 220 3.0 5.0 0.00 0.00 0.00 65 1010.1
20260904190458 74 139 0.0 1.0 0.00 0.00 0.00 68 1010.1
20260904185959 73 139 0.0 2.0 0.00 0.00 0.00 67 1010.1